Hourly Data Report for January 18, 2022

FISHER BRANCH (AUT)
MANITOBA
Current Station Operator: ECCC - MSC

51°05'00.100" N
97°33'16.200" W
253.00 m
50309J6
71442
WSZ

Download Data

Hourly Data (January 2022)
Hourly Data Report for January 18, 2022
TIME
LST
Temp Definition
°C
Dew Point Definition
°C
Rel Hum Definition
%
Precip. Amount Definition
mm

Wind Dir Definition
10's deg

Wind Spd Definition
km/h
Visibility Definition
km
Stn Press Definition
kPa
Hmdx Definition


Wind Chill Definition


Weather Definition


00:00 -15.9 -19.3 75 0.0 10 12   97.77   -23 LegendNANA
01:00 -15.9 -18.3 82 0.0 8 13   97.70   -23 LegendNANA
02:00 -15.6 -17.5 85 0.2 6 14   97.58   -23 LegendNANA
03:00 -15.1 -17.0 86 0.3 7 17   97.46   -24 LegendNANA
04:00 -14.8 -16.6 86 0.5 6 20   97.36   -24 LegendNANA
05:00 -14.8 -16.6 86 0.9 5 18   97.32   -23 LegendNANA
06:00 -15.1 -16.9 86 0.9 4 16   97.23   -23 LegendNANA
07:00 -15.0 -16.8 86 0.7 2 14   97.29   -23 LegendNANA
08:00 -14.9 -16.7 86 0.6 2 13   97.27   -22 LegendNANA
09:00 -15.2 -17.1 86 0.3 36 15   97.32   -23 LegendNANA
10:00 -16.1 -18.0 85 0.6 35 24   97.41   -26 LegendNANA
11:00 -15.8 -17.7 85 0.6 36 25   97.50   -26 LegendNANA
12:00 -15.7 -17.8 84 0.4 35 29   97.60   -27 LegendNANA
13:00 -16.2 -18.5 83 0.0 35 27   97.70   -27 LegendNANA
14:00 -16.9 -19.3 81 0.2 35 27   97.86   -28 LegendNANA
15:00 -17.8 -20.4 80 0.0 34 29   98.03   -30 LegendNANA
16:00 -18.8 -21.6 78 0.0 33 30   98.23   -31 LegendNANA
17:00 -20.0 -22.7 79 0.0 33 28   98.41   -32 LegendNANA
18:00 -21.0 -23.9 78 0.0 34 26   98.62   -33 LegendNANA
19:00 -21.5 -24.4 77 0.2 33 27   98.77   -34 LegendNANA
20:00 -21.2 -24.1 78 0.0 34 27   98.86   -34 LegendNANA
21:00 -20.9 -23.8 78 0.0 33 23   98.99   -32 LegendNANA
22:00 -20.7 -23.6 78 0.0 33 23   99.12   -32 LegendNANA
23:00 -20.7 -23.6 77 0.0 33 21   99.23   -32 LegendNANA

Notes on Data Quality.

Legend

  • E = Estimated
  • M = Missing
  • NA = Not Available*
  • [empty] = Indicates an unobserved value
Date modified: